星链-5767 (STARLINK-5767 )

导读 | 豆包AI

STARLINK-5767是美国SpaceX公司星链星座的卫星,于2023年2月12日发射升空,作为星链项目的一部分,它主要为全球提供高速互联网服务,尤其覆盖偏远地区等网络基础设施薄弱区域,该卫星的入轨进一步扩充了星链星座的规模,提升了系统的服务能力与覆盖稳定性。

基本信息
目录编号:
55586
目录名称:
STARLINK-5767
国际标识:
2023-020T
轨道中心:
EARTH
卫星名称:
星链-5767
卫星全名:
星链-5767 (STARLINK-5767 )
卫星状态:
在轨 (已飞行1127 天)
发射日期:
2023-02-12 UTC
国别 :
美国 (US)
星等 :
--
轨道信息
数据来源 国际轨道数据
星历时间: 2026-03-15T14:00:01+0800
8小时前
查看轨道信息
半长轴: 6888.733km
偏心率: 0.0000325
轨道倾角: 43.000°
近地点辐角 284.702°
升交点赤经 333.299°
平近点角 269.743°
近地点: 510.372km
远地点: 510.82km
周期: 94.835分钟
每日圈数: 15.184265
详细信息
固有亮度:
5
最大亮度:
2.5
卫星平台:
Starlink v1.5
覆盖范围:
全球
运营商:
太空探索技术公司
运营商所在国:
美国
制造商(研发单位):
太空探索技术公司
制造商所在国:
美国
使用方式:
暂无
卫星简介
星链(Starlink)计划是由太空探索技术公司(SpaceX)提出的一个巨型低轨卫星互联网星座项目,计划在2019年至2024年间在太空搭建由约1.2万颗卫星组成的“星链”网络,其中1584颗将部署在地球上空550千米处的近地轨道,并从2020年开始工作。该卫星仍在工作。
2D轨道图
3D轨道图
轨道高度分析图
轨道倾角分析图
轨道综合分析图
查看轨道综合分析图